This is the latest recevied weather packets stored in our database for station/object WX7FGZ-5. If no packets are shown the sender has not sent any weather packets the latest 1 day(s).
| Time | Temp. | Humidity | Pressure | Rain* | Wind** | Luminosity | Snow |
|---|---|---|---|---|---|---|---|
| 1777960202 | 7.22° C | 47% | 1018.6 hPa | 0 mm | 3.58 m/s, 192° | 0 W/m² | - |
| 1777959902 | 7.22° C | 46% | 1018.8 hPa | 0 mm | 3.58 m/s, 179° | 0 W/m² | - |
| 1777959637 | 7.22° C | 47% | 1018.6 hPa | 0 mm | 3.58 m/s, 182° | 0 W/m² | - |
| 1777959302 | 7.22° C | 47% | 1018.6 hPa | 0 mm | 3.58 m/s, 182° | 0 W/m² | - |
| 1777959192 | 7.22° C | 46% | 1018.3 hPa | 0 mm | 4.47 m/s, 177° | 0 W/m² | - |
| 1777959003 | 7.22° C | 46% | 1018.3 hPa | 0 mm | 4.47 m/s, 177° | 0 W/m² | - |
| 1777958942 | 7.22° C | 46% | 1018.3 hPa | 0 mm | 3.58 m/s, 177° | 0 W/m² | - |
| 1777958703 | 7.22° C | 46% | 1018.3 hPa | 0 mm | 3.58 m/s, 177° | 0 W/m² | - |
| 1777958610 | 7.22° C | 46% | 1018.5 hPa | 0 mm | 4.47 m/s, 182° | 0 W/m² | - |
| 1777958418 | 7.22° C | 46% | 1018.5 hPa | 0 mm | 4.47 m/s, 182° | 0 W/m² | - |
| 1777958402 | 7.22° C | 46% | 1018.4 hPa | 0 mm | 4.92 m/s, 189° | 0 W/m² | - |
| 1777958116 | 7.22° C | 46% | 1018.4 hPa | 0 mm | 4.92 m/s, 189° | 0 W/m² | - |
| 1777957694 | 7.22° C | 47% | 1018.6 hPa | 0 mm | 4.47 m/s, 182° | 0 W/m² | - |
| 1777957502 | 7.22° C | 47% | 1018.6 hPa | 0 mm | 4.47 m/s, 182° | 0 W/m² | - |
| 1777957215 | 7.22° C | 48% | 1018.6 hPa | 0 mm | 4.92 m/s, 188° | 0 W/m² | - |
| 1777956902 | 7.78° C | 48% | 1018.5 hPa | 0 mm | 6.26 m/s, 177° | 0 W/m² | - |
| 1777956605 | 7.78° C | 48% | 1018.6 hPa | 0 mm | 4.02 m/s, 185° | 0 W/m² | - |
| 1777956451 | 7.78° C | 47% | 1018.7 hPa | 0 mm | 4.47 m/s, 190° | 0 W/m² | - |
| 1777956303 | 7.78° C | 47% | 1018.7 hPa | 0 mm | 4.47 m/s, 190° | 0 W/m² | - |
| 1777955702 | 7.78° C | 46% | 1018.7 hPa | 0 mm | 5.36 m/s, 189° | 0 W/m² | - |
| 1777955406 | 7.78° C | 46% | 1018.6 hPa | 0 mm | 4.47 m/s, 199° | 0 W/m² | - |
| 1777955117 | 7.78° C | 46% | 1018.6 hPa | 0 mm | 3.58 m/s, 206° | 0 W/m² | - |
| 1777954502 | 7.78° C | 47% | 1018.3 hPa | 0 mm | 4.92 m/s, 198° | 0 W/m² | - |
| 1777953904 | 7.78° C | 46% | 1018.5 hPa | 0 mm | 4.47 m/s, 196° | 0 W/m² | - |
| 1777953506 | 8.33° C | 44% | 1018.4 hPa | 0 mm | 4.47 m/s, 194° | 0 W/m² | - |
* Rain latest hour (hover to see other rain measurements)
** Current wind speed in m/s (hover to see current wind gust speed)